Find Starlink 33945

NORAD ID: 64154 Int'l Des: 2025-112 Owner: SPXS Country: US Constellation: starlink operational
LEOCIRCULARRETROGRADESSO

リアルタイム位置

3D地球を読み込み中...

Starlink 33945について

説明を読み込み中...

次回通過

Passes for default location (London). Set your location on the main map for personalized predictions.

高度履歴

Loading altitude history...

軌道要素

1 64154U 25112J 26107.12396087 .00011384 00000-0 79196-3 0 9995
2 64154 97.6043 167.9199 0000755 166.3776 193.7471 15.05647236 49640
Epoch: Apr 17, 2026 • Age: 15 hours

現在のステータス

高度 573.5 km
速度 7.57 km/s
衛星直下点 -62.93°S, 148.54°W
打ち上げ日 May 27, 2025
運用期間 0.8 years
タイプ internet

技術仕様

分類 Payload
質量 575.00 kg
乾燥質量 530.00 kg
総質量 575.00 kg
長さ 0.30 m
直径 4.10 m
スパン 29.00 m
形状 Box + pan
製造者 SPXS
バスタイプ Starlink V2MO
フェーズステータス In Orbit
所有者/国 SPXS/US

Most Searched